{"data":{"norad_id":53449,"epoch":"2026-08-17T16:22:11.192736Z","epoch_age_seconds":3065424,"freshness":"OLD","line1":"1 53449U 22098F   26229.68207399  .03092900  25689-5  80791-3 0  9997","line2":"2 53449  97.5440   9.1804 0012001 275.1671  84.8253 16.28409381224663","mean_motion":16.28409381,"eccentricity":0.0012001,"inclination_deg":97.544,"raan_deg":9.1804,"arg_perigee_deg":275.1671,"mean_anomaly_deg":84.8253,"bstar":0.00080791,"rev_number":22466,"period_min":88.4298516578,"perigee_km":188.92728742446,"apogee_km":204.70849415333,"semimajor_km":6574.9548907889,"source":"CELESTRAK","updated_at":"2026-08-22T09:00:13.841701Z"}}